Blacksburg, VA

3:34 AM EDT on June 28, 2017 (GMT -0400)
Virginia Tech

Weather History for KBCB - November, 2012

Change the Weather History Date:

Friday, November 9, 2012

  Actual Average Record
Temperature  
Mean Temperature 44 °F 46 °F  
Max Temperature 59 °F 59 °F 78 °F (1975)
Min Temperature 29 °F 33 °F 14 °F (1976)
Degree Days  
Heating Degree Days 21 19  
Month to date heating degree days 233 163  
Since 1 July heating degree days 747 690  
Cooling Degree Days 0 0  
Month to date cooling degree days 0 0  
Year to date cooling degree days 716 573  
Moisture  
Dew Point 32 °F    
Average Humidity 59    
Maximum Humidity 82    
Minimum Humidity 35    
Precipitation  
Precipitation 0.00 in 0.09 in 1.88 in (1996)
Month to date precipitation 0.24 0.85  
Year to date precipitation 33.28 35.92  
Snow  
Snow 0.00 in - - ()
Month to date snowfall 0.0  
Since 1 July snowfall 0.6  
Since 1 September snowfall 0.6  
Snow Depth 0.00 in    
Sea Level Pressure  
Sea Level Pressure 30.23 in    
Wind  
Wind Speed 4 mph (West)    
Max Wind Speed 10 mph    
Max Gust Speed 18 mph    
Visibility 10 miles    
Events      
T = Trace of Precipitation, MM = Missing Value Source: NWS Daily Summary

Daily Weather History Graph

Daily Weather History Graph

Search for Another Location

Airport or City:

Trip Planner

Search our weather history database for the weather conditions in past years. The results will help you decide how hot, cold, wet, or windy it might be!

Date:

Astronomy

Nov. 09, 2012 Rise Set
Actual Time 6:54 AM EST 5:15 PM EST
Civil Twilight 6:27 AM EST 5:43 PM EST
Nautical Twilight 5:56 AM EST 6:14 PM EST
Astronomical Twilight 5:25 AM EST 6:44 PM EST
Moon 1:58 AM EST (11/9) 2:22 PM EST (11/9)
Length of Visible Light 11h 15m
Length of Day
10h 20m
Waning Crescent, 23% of the Moon is Illuminated
Nov 9
Waning Crescent
Nov 13
New
Nov 20
First Quarter
Nov 28
Full
Dec 6
Last Quarter

Hourly Weather History & Observations

Time (EST) Temp. Windchill Dew Point Humidity Pressure Visibility Wind Dir Wind Speed Gust Speed Precip Events Conditions
12:15 AM 33.8 °F - 26.6 °F 75% 30.18 in 10.0 mi Calm Calm - N/A   Clear
12:35 AM 33.8 °F - 26.6 °F 75% 30.17 in 10.0 mi Calm Calm - N/A   Clear
12:55 AM 33.8 °F - 26.6 °F 75% 30.17 in 10.0 mi Calm Calm - N/A   Clear
1:15 AM 30.2 °F - 26.6 °F 86% 30.17 in 10.0 mi Calm Calm - N/A   Clear
1:35 AM 35.6 °F - 28.4 °F 75% 30.17 in 10.0 mi Calm Calm - N/A   Clear
1:55 AM 37.4 °F 33.8 °F 28.4 °F 70% 30.17 in 10.0 mi West 4.6 mph - N/A   Clear
2:15 AM 37.4 °F 33.8 °F 28.4 °F 70% 30.17 in 10.0 mi West 4.6 mph - N/A   Clear
2:35 AM 37.4 °F 33.8 °F 28.4 °F 70% 30.17 in 10.0 mi West 4.6 mph - N/A   Clear
2:55 AM 37.4 °F 33.8 °F 28.4 °F 70% 30.18 in 10.0 mi West 4.6 mph - N/A   Clear
3:15 AM 35.6 °F 31.7 °F 28.4 °F 75% 30.17 in 10.0 mi West 4.6 mph - N/A   Clear
3:35 AM 35.6 °F 31.7 °F 28.4 °F 75% 30.17 in 10.0 mi West 4.6 mph - N/A   Clear
3:55 AM 35.6 °F 31.7 °F 28.4 °F 75% 30.17 in 10.0 mi West 4.6 mph - N/A   Clear
4:15 AM 35.6 °F 30.7 °F 28.4 °F 75% 30.17 in 10.0 mi West 5.8 mph - N/A   Clear
4:35 AM 35.6 °F 32.8 °F 28.4 °F 75% 30.17 in 10.0 mi WSW 3.5 mph - N/A   Clear
4:55 AM 35.6 °F 31.7 °F 28.4 °F 75% 30.18 in 10.0 mi West 4.6 mph - N/A   Clear
5:15 AM 35.6 °F 30.7 °F 28.4 °F 75% 30.18 in 10.0 mi West 5.8 mph - N/A   Clear
5:35 AM 37.4 °F 32.1 °F 30.2 °F 75% 30.19 in 10.0 mi West 6.9 mph - N/A   Clear
5:55 AM 37.4 °F 32.1 °F 30.2 °F 75% 30.20 in 10.0 mi West 6.9 mph - N/A   Clear
6:15 AM 37.4 °F 32.8 °F 30.2 °F 75% 30.20 in 10.0 mi West 5.8 mph - N/A   Clear
6:35 AM 37.4 °F 33.8 °F 30.2 °F 75% 30.21 in 10.0 mi West 4.6 mph - N/A   Clear
6:55 AM 39.2 °F 35.9 °F 30.2 °F 70% 30.21 in 10.0 mi West 4.6 mph - N/A   Clear
7:15 AM 39.2 °F 35.9 °F 30.2 °F 70% 30.22 in 10.0 mi West 4.6 mph - N/A   Clear
7:35 AM 41.0 °F 39.0 °F 30.2 °F 65% 30.23 in 10.0 mi West 3.5 mph - N/A   Clear
7:55 AM 42.8 °F 40.1 °F 30.2 °F 61% 30.24 in 10.0 mi West 4.6 mph - N/A   Clear
8:15 AM 44.6 °F 41.4 °F 32.0 °F 61% 30.24 in 10.0 mi West 5.8 mph - N/A   Clear
8:35 AM 46.4 °F 42.9 °F 32.0 °F 57% 30.25 in 10.0 mi West 6.9 mph - N/A   Clear
8:55 AM 46.4 °F 43.5 °F 32.0 °F 57% 30.25 in 10.0 mi West 5.8 mph - N/A   Clear
9:15 AM 48.2 °F - 32.0 °F 54% 30.25 in 10.0 mi West 6.9 mph - N/A   Clear
9:35 AM 48.2 °F - 32.0 °F 54% 30.26 in 10.0 mi West 11.5 mph 18.4 mph N/A   Clear
9:55 AM 50.0 °F - 32.0 °F 50% 30.27 in 10.0 mi WNW 9.2 mph - N/A   Clear
10:15 AM 50.0 °F - 32.0 °F 50% 30.28 in 10.0 mi WNW 12.7 mph 18.4 mph N/A   Clear
10:35 AM 51.8 °F - 32.0 °F 47% 30.28 in 10.0 mi WNW 8.1 mph 16.1 mph N/A   Clear
10:55 AM 53.6 °F - 33.8 °F 47% 30.28 in 10.0 mi West 8.1 mph - N/A   Clear
11:15 AM 53.6 °F - 33.8 °F 47% 30.28 in 10.0 mi West 5.8 mph - N/A   Clear
11:35 AM 55.4 °F - 33.8 °F 44% 30.27 in 10.0 mi NW 6.9 mph - N/A   Clear
11:55 AM 55.4 °F - 33.8 °F 44% 30.26 in 10.0 mi West 8.1 mph - N/A   Clear
12:15 PM 57.2 °F - 33.8 °F 41% 30.25 in 10.0 mi West 6.9 mph - N/A   Clear
12:35 PM 57.2 °F - 33.8 °F 41% 30.24 in 10.0 mi WNW 6.9 mph - N/A   Clear
12:55 PM 59.0 °F - 33.8 °F 39% 30.24 in 10.0 mi NW 8.1 mph - N/A   Clear
1:15 PM 60.8 °F - 33.8 °F 36% 30.23 in 10.0 mi West 6.9 mph - N/A   Clear
1:35 PM 60.8 °F - 33.8 °F 36% 30.23 in 10.0 mi West 6.9 mph - N/A   Clear
1:55 PM 60.8 °F - 32.0 °F 34% 30.22 in 10.0 mi West 10.4 mph - N/A   Clear
2:15 PM 60.8 °F - 32.0 °F 34% 30.22 in 10.0 mi WNW 9.2 mph - N/A   Clear
2:35 PM 60.8 °F - 33.8 °F 36% 30.22 in 10.0 mi West 6.9 mph - N/A   Clear
2:55 PM 60.8 °F - 33.8 °F 36% 30.21 in 10.0 mi West 6.9 mph - N/A   Clear
3:15 PM 60.8 °F - 33.8 °F 36% 30.22 in 7.0 mi West 5.8 mph - N/A   Clear
3:35 PM 60.8 °F - 33.8 °F 36% 30.22 in 10.0 mi WNW 5.8 mph - N/A   Clear
3:55 PM 60.8 °F - 33.8 °F 36% 30.22 in 10.0 mi Calm Calm - N/A   Clear
4:15 PM 60.8 °F - 33.8 °F 36% 30.21 in 7.0 mi Calm Calm - N/A   Clear
4:35 PM 60.8 °F - 33.8 °F 36% 30.21 in 10.0 mi Calm Calm - N/A   Clear
4:55 PM 57.2 °F - 33.8 °F 41% 30.21 in 10.0 mi WNW 3.5 mph - N/A   Clear
5:15 PM 53.6 °F - 33.8 °F 47% 30.22 in 10.0 mi Calm Calm - N/A   Clear
5:35 PM 48.2 °F - 35.6 °F 62% 30.22 in 10.0 mi Calm Calm - N/A   Clear
5:55 PM 48.2 °F - 35.6 °F 62% 30.23 in 10.0 mi Calm Calm - N/A   Clear
6:15 PM 46.4 °F - 33.8 °F 62% 30.24 in 10.0 mi Calm Calm - N/A   Clear
6:35 PM 44.6 °F - 33.8 °F 66% 30.24 in 10.0 mi Calm Calm - N/A   Clear
6:55 PM 44.6 °F - 33.8 °F 66% 30.24 in 10.0 mi Calm Calm - N/A   Clear
7:15 PM 42.8 °F - 33.8 °F 70% 30.25 in 10.0 mi Calm Calm - N/A   Clear
7:35 PM 42.8 °F - 33.8 °F 70% 30.24 in 10.0 mi Calm Calm - N/A   Clear
7:55 PM 42.8 °F - 33.8 °F 70% 30.25 in 10.0 mi Calm Calm - N/A   Clear
8:15 PM 39.2 °F - 33.8 °F 81% 30.25 in 10.0 mi Calm Calm - N/A   Clear
8:35 PM 39.2 °F - 32.0 °F 75% 30.25 in 10.0 mi Calm Calm - N/A   Clear
8:55 PM 39.2 °F - 33.8 °F 81% 30.26 in 10.0 mi Calm Calm - N/A   Clear
9:15 PM 39.2 °F - 33.8 °F 81% 30.26 in 10.0 mi Calm Calm - N/A   Clear
9:35 PM 37.4 °F - 30.2 °F 75% 30.26 in 10.0 mi Calm Calm - N/A   Clear
9:55 PM 37.4 °F - 32.0 °F 81% 30.27 in 10.0 mi Calm Calm - N/A   Clear
10:15 PM 37.4 °F - 32.0 °F 81% 30.27 in 10.0 mi Calm Calm - N/A   Clear
10:35 PM 35.6 °F - 32.0 °F 87% 30.27 in 10.0 mi Calm Calm - N/A   Clear
10:55 PM 37.4 °F - 32.0 °F 81% 30.27 in 10.0 mi Calm Calm - N/A   Clear
11:17 PM 35.6 °F - 32.0 °F 87% 30.27 in 10.0 mi Calm Calm - N/A   Clear
11:35 PM 35.6 °F - 32.0 °F 87% 30.27 in 10.0 mi Calm Calm - N/A   Clear